OPS 4682 DEB, 38401

Orbit data source: Space-Track

OPS 4682 DEB, 38401 is space debris in LEO originally from a launch on Sat, 03 Apr 1965 UTC launched from the Air Force Western Test Range (AFWTR). Debris objects in space refer to the collection of defunct objects orbiting the Earth. Examples of debris include non-operational satellites, rocket bodies, and fragments generated from explosions, collisions, or faulty payload assembly.

Loading next visibility...
Identifier
38401, 1965-027DE
Orbit
LEO
Country
Flag of USUS
Related business
Manufacturer
Unknown
Mission
Spacecraft
Bus & Motor
Unknown
Mass
Unknown
Launch date (UTC)
1965-04-03 (61 years ago)
Launch vehicle
Unknown
Launch site
Air Force Western Test Range (AFWTR)
Object type
Payload
Rocket body
Debris
Shape & HBR
Unknown shape, 0.1 m
Radar Cross Section
Medium (>0.1 m² and <1 m²)

Expand to show TLE details & history
Last TLE update: 1 day ago

TLE from 1 day ago
0 OPS 4682 DEB
1 38401U 65027DE  26149.54255908  .00000173  00000-0  58862-3 0  9999
2 38401  90.2431   8.1819 0030128 237.0072 122.8151 12.95318070659960
Epoch: 2026-05-29T13:01Z
TLE epoch observation values (Epoch: 2026-05-29T13:01:17.104Z)
Latitude
-0.00002°
Longitude
-74.21081°
Altitude
1,295.918 km
Speed
7.202 km/s
True Right ascension
00h 32m 43s
True Declination
0° 00' 00"
Sunlit
Object was in daylight at epoch
Visualization orbit readout
Latitude
Unknown
Longitude
Unknown
Altitude
Unknown
Speed
Unknown
Apparent Right ascension
Unknown
Apparent Declination
Unknown
Sunlit
N/A
Visualization observer readout
Local Sidereal Time
02:47:40
Azimuth
Unknown
Elevation
Unknown
Doppler factor
Unknown
Orbital elements
Apogee altitude
1,300.685 km
Perigee altitude
1,254.555 km
Semi-major axis
7,655.757 km
Eccentricity
0.00301
Inclination
90.2431°
RAAN
8.1819°
Arg. of periapsis
237.0072°
True anomaly
123.10466°
Mean anomaly
122.8151°
Eccentric anomaly
122.95994°
Mean motion
3.24012 °/min
Orbital period
111.11 mins
BSTAR
0.00058862
Loading maneuver chart data...
Computing Atmospheric mass density...
Loading historical data...
Loading historical data...
Loading historical data...
Loading historical data...
Loading historical data...
Loading historical data...
Loading historical data...

Documentation

Showing up to 5 results
|